Погода Карасу

Погода Карасу : погода сейчас, прогноз погоды и архив. Всё, что Вы хотите узнать о погоде Карасу!

Поиск расширенной информации на нашем сайте:

Полезная информация: Аренда помещения в краснодаре под хостел недорого.

Другие новости

Новости СМИ2

Главная страница сайта

Новости сайта

03.07.2017

Напоминаем, что на нашем специализированном сайте Метеоцентр.Азия вы можете получить высокодетализированные автоматические прогнозы погоды по пунктам России, СНГ и мира в авиационном формате (включающие направление и скорость ветра, видимость, явления погоды, количество и форму облачности, нижнюю и верхнюю границу облачности).

Рекомендуем: Самая подробная информация пояс верности силиконовый у нас.

Погода Карасу - сегодня

Время (UTC), дата Ветер
(°,м/с) 
Видим.   Явления Облачность Т
(°С)
Тd
(°С)
f(%) Тe
(°С)
Pmin
(гПа)
dP
(гПа)
Po
(мм)
O2
(г/м3)
Тmin Tmax R s Состояние
почвы
21 19.11.17 140 (ЮВ) н/о    1/1 600 м 
[Sc]
+0.6 -1.7 85 1033  -1.6  696  280           
00 20.11.17 160 (Ю) н/о    1/1 600 м 
[Sc]
-1.6 -3.8 85 -3  1032.9  -0.9  696  282           
03 20.11.17 140 (ЮВ) 4000 м  дымка  ясно 
-1.1 -4 81 -1  1032.8  0.2             
06 20.11.17 320 (СЗ) 4000 м  дымка  ясно 
+8.9 -0.2 53 +10  1029.1  0.1  696  271  -2         
09 20.11.17 270 (З) 10 км    ясно 
+10.7 -0.9 44 +11  1026.6  -1.6  695  269           
12 20.11.17 тихо ()   4000 м  дымка  8/0 верхняя 
[Ci fib]
+7.9 -0.7 54 +8  1027.4  -0.2  695  272           
15 20.11.17 160 (Ю) н/о    3/0 верхняя 
[Ci fib]
+0.8 -2.1 81 1031.1  0.8  695  279    +11.6       
18 20.11.17 180 (Ю) н/о    ясно 
+2.5 -3.8 63 +2  1029.5  -0.8  695  278    +11.6       
21 20.11.17 180 (Ю) н/о    ясно 
-1 -4.9 75 1030  -0.9  694  281           
00 21.11.17 140 (ЮВ) н/о    ясно 
-2 -5.7 76 -1  1030.5  0.1  694  282           
03 21.11.17 тихо ()   20000 м    ясно 
-2 -6.2 73 -2  1030.6  0.1             
06 21.11.17 360 (С) 20000 м    ясно 
+10.1 -5.4 33 +11  1026.1  0.1  694  270           
09 21.11.17 270 (З) 20000 м    ясно 
+12.5 -0.5 41 +14  1023.3  -1.6  693  267           
12 21.11.17 тихо ()   10 км    ясно 
+8.7 -2.2 46 +9  1024  -0.7  692  270           
15 21.11.17 180 (Ю) н/о  дымка  ясно 
+2 -6 55 +3  1026.4  -0.2  692  277    +13.1       
18 21.11.17 180 (Ю) н/о    ясно 
+2.8 -6.9 49 +4  1025.5  -0.5  692  277    +13.1       
21 21.11.17 180 (Ю) н/о    ясно 
-2.2 -6.5 72 -2  1026.6  -0.7  691  281           
00 22.11.17 180 (Ю) н/о    ясно 
-2.2 -6.9 70 -2  1026.2  -0.4  691  281           
03 22.11.17 180 (Ю) 20000 м    ясно 
-2 -7.4 66 -1  1026  691  281           
06 22.11.17 тихо ()   20000 м    ясно 
+11.2 -7.4 26 +11  1031.3  0.1  691  268  -3.5         
09 22.11.17 320 (СЗ) 20000 м    ясно 
+14.4 -1.9 32 +15  1018.4  -1.4  690  264           
12 22.11.17 180 (Ю) 10 км    ясно 
+8.5 -3.6 42 +10  1019.7  -0.8  689  270           
15 22.11.17 160 (Ю) н/о    ясно 
+2 -4.8 61 +1  1022.1  689  276    +15       
18 22.11.17 180 (Ю) н/о    ясно 
-1.2 -5.5 73 -1  1022.8  -0.7  689  279    +15       
21 22.11.17 140 (ЮВ) н/о    ясно 
+0.5 -7.8 54 +1  1020.7  -1.2  688  277           
Время (UTC), дата Ветер
(°,м/с) 
Видим.   Явления Облачность Т
(°С)
Тd
(°С)
f(%) Тe
(°С)
Pmin
(гПа)
dP
(гПа)
Po
(мм)
O2
(г/м3)
Тmin Tmax R s Состояние
почвы

Для получения пояснительной информации подведите курсор к названию столбца.

ПОГОДА Карасу - архив

Всё, что Вы хотите узнать о погоде Карасу - удобно и подробно!

Выберите нужную дату (начиная с 1 января 2015* года) и нажмите кнопку "Найти".
Будут отображены архивные сводки погоды по пункту Карасу, начиная с указанной даты.


Отображать данные в формате CSV (для использования в таблицах Excel)


Внимание! Наш архив погоды предназначен исключительно для личного некоммерческого использования в познавательных целях. Если Вам необходимы официальные справки о состоянии погоды (для производственных, юридических, коммерческих и т.п. целей), обращайтесь в органы Росгидромета.

*Примечание: данная дата относится к архиву по метеостанциям СССР (Россия, СНГ, Балтия).
Архив по метеостанциям Зарубежной Европы и Азии (кроме Китая) хранится 10 дней, по другим регионам земного шара (Китай, Африка, Америка, Австралия, Океания) - 1 день.

Карасу - район местоположения метеостанции


Название, широта, долгота, высота метеостанции:
Карасу 40.7°ш. 72.9°д. 865 м над ур. моря [Кыргызстан]

Дополнительная информация

В oтличие oт бoльшинства пoгoдных сайтoв мы публикуем пoдрoбную метеoинфoрмацию в детальнoм прoфессиoнальнoм фoрмате.

Характеристики температуры и влажнoсти вoздуха измеряются на высoте 2 м в тени вдали oт зданий и деревьев.
Скoрoсть ветра измеряется на высoте 10 м (на урoвне рoста челoвека скoрoсть ветра ниже в 1.5-2 раза). Если метеoстанция нахoдится в гoрoде или в лесу, тo скoрoсть ветра занижена на 2-4 м/с пo сравнению с oткрытым местoм. Скoрoсть ветра над акватoриями крупных рек и oзёр, а также на вершинах хoлмoв на 2-5 м/с выше, чем в oбычных услoвиях.
Атмoсфернoе давление в разных тoчках местнoсти мoжет значительнo oтличаться oт давления на метеoстанции, в зависимoсти oт услoвий рельефа (при пoдъёме на 10 м давление пoнижается примернo на 1 мм рт.ст.).